KY4LEX Weather Reports


time (UTC)temp
C
wind
direction
speed
KPH
gust
KPH
rain 1hr
cm
rain 24hr
cm
rain mn
cm
humidity
%
barometer
mb
20260505130124 17 313 3.2 4.8 0.00 0.00 0.00 65 1016.9
20260505124613 17 23 3.2 4.8 0.00 0.00 0.00 66 1016.9
20260505124109 16 305 0.0 3.2 0.00 0.00 0.00 67 1017.0
20260505123606 16 12 0.0 3.2 0.00 0.00 0.00 67 1017.0
20260505123103 16 7 3.2 4.8 0.00 0.00 0.00 67 1017.1
20260505122559 16 11 3.2 4.8 0.00 0.00 0.00 67 1016.8
20260505122056 16 335 1.6 3.2 0.00 0.00 0.00 68 1016.8
20260505121552 16 5 1.6 3.2 0.00 0.00 0.00 69 1016.8
20260505121050 15 314 1.6 8.0 0.00 0.00 0.00 70 1016.6
20260505120546 15 7 0.0 0.0 0.00 0.00 0.00 72 1016.6
20260505120042 15 25 0.0 0.0 0.00 0.00 0.00 72 1016.6
20260505115536 15 23 0.0 0.0 0.00 0.00 0.00 72 1016.6
20260505115034 15 7 0.0 3.2 0.00 0.00 0.00 73 1016.6
20260505114531 15 2 0.0 3.2 0.00 0.00 0.00 75 1016.5
20260505114027 15 354 0.0 0.0 0.00 0.00 0.00 74 1016.5
20260505113524 14 2 0.0 0.0 0.00 0.00 0.00 74 1016.6
20260505113020 14 321 1.6 3.2 0.00 0.00 0.00 77 1016.6
20260505112516 14 28 0.0 3.2 0.00 0.00 0.00 76 1016.5
20260505112015 13 7 1.6 3.2 0.00 0.00 0.00 78 1016.5
20260505111508 13 336 1.6 3.2 0.00 0.00 0.00 78 1016.4
20260505111004 13 22 0.0 3.2 0.00 0.00 0.00 77 1016.4
20260505110501 13 23 0.0 0.0 0.00 0.00 0.00 78 1016.6
20260505101933 13 15 0.0 0.0 0.00 0.00 0.00 77 1015.7
20260505101432 13 19 0.0 0.0 0.00 0.00 0.00 76 1015.7
20260505100928 13 19 0.0 0.0 0.00 0.00 0.00 75 1015.7
20260505100426 14 20 0.0 0.0 0.00 0.00 0.00 74 1015.6
20260505095921 14 20 0.0 0.0 0.00 0.00 0.00 72 1015.5
20260505095418 15 9 0.0 0.0 0.00 0.00 0.00 71 1015.5
20260505094914 15 4 0.0 0.0 0.00 0.00 0.00 70 1015.4
20260505094412 15 353 0.0 3.2 0.00 0.00 0.00 69 1015.5
20260505093907 15 8 0.0 3.2 0.00 0.00 0.00 70 1015.3
20260505093405 15 356 0.0 4.8 0.00 0.00 0.00 69 1015.1
20260505092902 15 350 0.0 3.2 0.00 0.00 0.00 69 1015.3
20260505092400 15 227 0.0 3.2 0.00 0.00 0.00 68 1015.4
20260505091857 16 352 0.0 4.8 0.00 0.00 0.00 66 1015.4
20260505091355 16 343 0.0 4.8 0.00 0.00 0.00 66 1015.4
20260505090852 16 322 3.2 3.2 0.00 0.00 0.00 66 1015.3
20260505090350 16 357 0.0 4.8 0.00 0.00 0.00 66 1015.3
20260505085847 16 354 0.0 3.2 0.00 0.00 0.00 65 1015.2
20260505085345 16 4 0.0 3.2 0.00 0.00 0.00 65 1015.1
20260505084843 16 355 1.6 4.8 0.00 0.00 0.00 64 1015.2
20260505084341 16 348 0.0 4.8 0.00 0.00 0.00 64 1015.1
20260505083838 16 2 0.0 11.3 0.00 0.00 0.00 64 1015.2
20260505083336 16 330 1.6 4.8 0.00 0.00 0.00 64 1015.0
20260505082832 16 2 4.8 4.8 0.00 0.00 0.00 64 1014.9
20260505082328 16 318 3.2 4.8 0.00 0.00 0.00 64 1014.7
20260505081825 16 322 3.2 8.0 0.00 0.00 0.00 63 1014.7
20260505081322 16 11 3.2 8.0 0.00 0.00 0.00 64 1014.8
20260505080818 16 312 6.4 8.0 0.00 0.00 0.00 63 1014.8
20260505080314 16 342 3.2 11.3 0.00 0.00 0.00 64 1014.8
20260505075810 16 308 1.6 8.0 0.00 0.00 0.00 63 1014.9
20260505075307 16 291 6.4 11.3 0.00 0.00 0.00 63 1014.8
20260505074804 17 321 3.2 4.8 0.00 0.00 0.00 62 1015.0
20260505074301 17 304 3.2 11.3 0.00 0.00 0.00 62 1015.1
20260505073759 17 304 3.2 8.0 0.00 0.00 0.00 62 1014.7
20260505073257 17 318 3.2 11.3 0.00 0.00 0.00 62 1014.5
20260505072753 17 333 1.6 3.2 0.00 0.00 0.00 62 1014.7
20260505072249 17 295 4.8 8.0 0.00 0.00 0.00 62 1014.7
20260505071745 17 321 3.2 8.0 0.00 0.00 0.00 62 1014.9
20260505071242 17 347 0.0 4.8 0.00 0.00 0.00 62 1014.8
20260505070740 17 328 3.2 8.0 0.00 0.00 0.00 61 1014.9
20260505070236 17 352 1.6 3.2 0.00 0.00 0.00 62 1014.9
20260505065731 17 303 3.2 4.8 0.00 0.00 0.00 61 1014.9
20260505065229 17 358 0.0 4.8 0.00 0.00 0.00 62 1014.7
20260505064725 17 2 0.0 4.8 0.00 0.00 0.00 61 1014.9
20260505064223 17 343 3.2 11.3 0.00 0.00 0.00 61 1014.9
20260505063720 17 306 4.8 8.0 0.00 0.00 0.00 60 1014.8
20260505063216 17 30 3.2 11.3 0.00 0.00 0.00 61 1014.8
20260505062713 17 337 0.0 4.8 0.00 0.00 0.00 62 1014.9
20260505062211 17 320 3.2 4.8 0.00 0.00 0.00 62 1015.0
20260505061708 17 310 3.2 8.0 0.00 0.00 0.00 62 1015.0
20260505061206 17 319 3.2 4.8 0.00 0.00 0.00 62 1014.9
20260505060703 17 10 3.2 8.0 0.00 0.00 0.00 62 1015.1
20260505060159 17 306 1.6 3.2 0.00 0.00 0.00 63 1014.9
20260505055655 17 3 0.0 3.2 0.00 0.00 0.00 62 1015.1
20260505055151 17 311 3.2 4.8 0.00 0.00 0.00 62 1015.1
20260505054649 17 10 0.0 3.2 0.00 0.00 0.00 63 1015.1
20260505054147 17 346 3.2 3.2 0.00 0.00 0.00 62 1015.1
20260505053644 17 340 0.0 4.8 0.00 0.00 0.00 61 1015.3
20260505053140 17 349 1.6 4.8 0.00 0.00 0.00 61 1015.4
20260505052638 17 8 0.0 3.2 0.00 0.00 0.00 61 1015.3
20260505052135 17 0 0.0 3.2 0.00 0.00 0.00 63 1015.2
20260505051632 17 346 1.6 4.8 0.00 0.00 0.00 62 1015.3
20260505051130 17 347 1.6 3.2 0.00 0.00 0.00 62 1015.3
20260505050627 17 4 0.0 3.2 0.00 0.00 0.00 62 1015.3
20260505050126 17 341 1.6 3.2 0.00 0.00 0.00 61 1015.5
20260505041555 17 358 0.0 3.2 0.00 0.00 0.00 60 1015.1
20260505041053 17 356 0.0 4.8 0.00 0.00 0.00 60 1015.1
20260505040550 17 327 3.2 3.2 0.00 0.00 0.00 60 1015.1
20260505040047 17 3 0.0 0.0 0.00 0.00 0.00 61 1015.1
20260505035543 17 158 3.2 3.2 0.00 0.18 0.18 61 1014.9
20260505035040 17 345 0.0 4.8 0.00 0.18 0.18 62 1015.0
20260505034536 17 2 0.0 0.0 0.00 0.18 0.18 62 1015.0
20260505034033 17 9 0.0 3.2 0.00 0.18 0.18 64 1015.0
20260505033530 17 21 0.0 0.0 0.00 0.18 0.18 63 1015.0
20260505033028 17 359 0.0 3.2 0.00 0.18 0.18 63 1014.8
20260505032526 17 14 0.0 0.0 0.00 0.18 0.18 63 1014.8
20260505032022 17 6 0.0 3.2 0.00 0.18 0.18 64 1014.5
20260505031520 17 33 0.0 0.0 0.00 0.18 0.18 63 1014.8
20260505031016 18 55 0.0 3.2 0.00 0.18 0.18 61 1014.6
20260505030513 18 33 0.0 0.0 0.00 0.18 0.18 63 1014.6
20260505030009 18 18 0.0 0.0 0.00 0.18 0.18 63 1014.5
20260505025505 18 36 0.0 3.2 0.00 0.18 0.18 63 1014.5
20260505025004 18 13 0.0 0.0 0.00 0.18 0.18 61 1014.2
20260505024500 18 13 0.0 0.0 0.00 0.18 0.18 61 1014.1
20260505023957 18 4 0.0 0.0 0.00 0.18 0.18 61 1014.1
20260505023454 18 336 0.0 3.2 0.00 0.18 0.18 60 1014.0
20260505022952 18 355 0.0 3.2 0.00 0.18 0.18 61 1014.0
20260505022449 18 2 0.0 3.2 0.00 0.18 0.18 62 1014.1
20260505021946 18 10 0.0 0.0 0.00 0.18 0.18 61 1013.8
20260505021443 18 4 0.0 3.2 0.00 0.18 0.18 62 1013.8
20260505020938 19 8 0.0 0.0 0.00 0.18 0.18 62 1013.8
20260505020434 19 2 0.0 0.0 0.00 0.18 0.18 59 1013.7
20260505015931 20 1 0.0 0.0 0.00 0.18 0.18 58 1013.6
20260505015428 20 9 0.0 3.2 0.00 0.18 0.18 59 1013.9
20260505014926 20 14 0.0 0.0 0.00 0.18 0.18 60 1013.6
20260505014422 20 26 0.0 0.0 0.00 0.18 0.18 56 1013.5
20260505013919 20 358 0.0 3.2 0.00 0.18 0.18 56 1013.5
20260505013416 20 335 1.6 4.8 0.00 0.18 0.18 55 1013.5
20260505012914 20 250 0.0 3.2 0.00 0.18 0.18 54 1013.3
20260505012412 20 336 3.2 4.8 0.00 0.18 0.18 55 1013.4
20260505011908 20 348 3.2 3.2 0.00 0.18 0.18 52 1013.4
20260505011405 21 351 1.6 8.0 0.00 0.18 0.18 53 1013.4
20260505010901 21 4 0.0 4.8 0.00 0.18 0.18 53 1013.6
20260505010357 21 348 0.0 3.2 0.00 0.18 0.18 53 1013.5
20260505005853 21 22 0.0 3.2 0.00 0.18 0.18 53 1013.4
20260505005350 21 25 0.0 0.0 0.00 0.18 0.18 52 1013.4
20260505004848 21 10 0.0 3.2 0.00 0.18 0.18 50 1013.3
20260505004343 21 17 0.0 3.2 0.00 0.18 0.18 52 1013.3
20260505003841 21 18 0.0 3.2 0.00 0.18 0.18 53 1013.3
20260505003338 22 351 0.0 3.2 0.00 0.18 0.18 50 1013.3
20260505002834 22 353 3.2 4.8 0.00 0.18 0.18 48 1013.4
20260505002331 22 358 1.6 4.8 0.00 0.18 0.18 47 1013.4
20260505001830 22 333 1.6 4.8 0.00 0.18 0.18 46 1013.6
20260505001326 22 16 0.0 3.2 0.00 0.18 0.18 47 1013.7
20260505000823 22 357 1.6 3.2 0.00 0.18 0.18 46 1013.7
20260505000321 22 344 1.6 4.8 0.00 0.18 0.18 46 1013.9
20260504235818 23 340 0.0 4.8 0.00 0.18 0.18 46 1013.6
20260504235314 23 314 3.2 4.8 0.00 0.18 0.18 45 1013.7
20260504234811 23 338 3.2 4.8 0.00 0.18 0.18 46 1014.1
20260504234309 23 8 3.2 4.8 0.00 0.18 0.18 44 1014.0
20260504233805 23 5 3.2 4.8 0.00 0.18 0.18 45 1014.2
20260504233301 23 46 8.0 19.3 0.00 0.18 0.18 43 1014.1
20260504232758 23 303 4.8 16.1 0.00 0.18 0.18 43 1014.5
20260504232255 23 342 3.2 4.8 0.00 0.18 0.18 45 1014.5
20260504231752 23 30 8.0 22.5 0.00 0.18 0.18 43 1014.3
20260504231248 23 355 3.2 19.3 0.00 0.18 0.18 43 1014.5
20260504230744 23 267 6.4 11.3 0.00 0.18 0.18 45 1014.2
20260504230243 24 12 4.8 8.0 0.00 0.18 0.18 44 1014.7
20260504225741 24 349 1.6 8.0 0.00 0.18 0.18 42 1014.7
20260504225237 25 326 6.4 14.5 0.00 0.18 0.18 42 1014.6
20260504224734 25 343 3.2 14.5 0.00 0.18 0.18 41 1014.7
20260504224231 25 314 3.2 14.5 0.00 0.18 0.18 40 1014.9
20260504223728 25 337 6.4 11.3 0.00 0.18 0.18 39 1014.6
20260504223223 26 352 4.8 4.8 0.00 0.18 0.18 40 1014.5
20260504222721 25 355 4.8 19.3 0.00 0.18 0.18 39 1014.7
20260504222217 25 2 4.8 14.5 0.00 0.18 0.18 40 1014.7
20260504221715 25 343 4.8 16.1 0.00 0.18 0.18 41 1014.6
20260504221212 25 2 9.7 16.1 0.00 0.18 0.18 41 1014.6
20260504220708 26 274 9.7 14.5 0.00 0.18 0.18 41 1014.7
20260504220206 26 17 3.2 8.0 0.00 0.18 0.18 41 1014.7
20260504215702 26 291 3.2 19.3 0.00 0.18 0.18 39 1014.7
20260504215159 26 351 4.8 14.5 0.00 0.18 0.18 38 1014.7
20260504214655 26 278 4.8 11.3 0.00 0.18 0.18 40 1014.5
20260504214152 26 49 6.4 14.5 0.00 0.18 0.18 39 1014.7
20260504213648 26 15 9.7 14.5 0.00 0.18 0.18 39 1014.6
20260504213145 25 305 9.7 19.3 0.00 0.18 0.18 42 1014.5
20260504212642 26 20 9.7 16.1 0.00 0.18 0.18 40 1014.8
20260504212138 26 316 4.8 14.5 0.00 0.18 0.18 40 1014.8
20260504211636 26 297 8.0 11.3 0.00 0.18 0.18 39 1014.6
20260504211132 26 237 11.3 19.3 0.00 0.18 0.18 39 1014.8
20260504210630 26 359 1.6 14.5 0.00 0.18 0.18 42 1014.6
20260504210126 26 327 3.2 14.5 0.00 0.18 0.18 40 1014.6
20260504205624 26 286 11.3 16.1 0.00 0.18 0.18 40 1014.7
20260504205121 26 349 6.4 19.3 0.00 0.18 0.18 41 1014.7
20260504204620 26 298 4.8 14.5 0.00 0.18 0.18 42 1014.7
20260504204118 26 304 6.4 19.3 0.00 0.18 0.18 41 1015.0
20260504203616 26 343 4.8 4.8 0.00 0.18 0.18 42 1014.8
20260504203114 26 299 9.7 22.5 0.00 0.18 0.18 41 1015.1
20260504202608 26 279 8.0 14.5 0.00 0.18 0.18 39 1015.1
20260504202106 26 18 9.7 16.1 0.00 0.18 0.18 40 1014.8
20260504201602 26 320 12.9 16.1 0.00 0.18 0.18 40 1015.0
20260504201100 26 236 4.8 14.5 0.00 0.18 0.18 41 1015.0
20260504200556 26 10 4.8 16.1 0.00 0.18 0.18 42 1015.1
20260504200053 26 241 12.9 19.3 0.00 0.18 0.18 41 1015.5
20260504195549 27 7 3.2 11.3 0.00 0.18 0.18 42 1015.6
20260504195046 25 359 4.8 8.0 0.00 0.18 0.18 42 1015.5
20260504194543 25 261 8.0 19.3 0.00 0.18 0.18 41 1015.7
20260504194038 26 333 12.9 16.1 0.00 0.18 0.18 41 1015.7
20260504193535 26 274 6.4 11.3 0.00 0.18 0.18 42 1015.6
20260504193034 25 345 4.8 14.5 0.00 0.18 0.18 42 1015.7
20260504192532 25 330 9.7 16.1 0.00 0.18 0.18 43 1015.7
20260504192029 25 8 6.4 14.5 0.00 0.18 0.18 43 1015.8
20260504191527 25 309 9.7 11.3 0.00 0.18 0.18 44 1016.0
20260504191023 25 13 11.3 16.1 0.00 0.18 0.18 47 1015.9
20260504190519 25 158 8.0 16.1 0.00 0.18 0.18 47 1015.6
20260504190015 24 274 3.2 8.0 0.00 0.18 0.18 47 1015.8
20260504185513 24 333 3.2 19.3 0.00 0.18 0.18 45 1015.8
20260504185009 25 332 8.0 14.5 0.00 0.18 0.18 47 1016.0
20260504184510 25 293 8.0 14.5 0.00 0.18 0.18 45 1015.8
20260504184005 25 257 4.8 14.5 0.00 0.18 0.18 50 1015.9
20260504183503 25 263 4.8 16.1 0.00 0.18 0.18 47 1015.8
20260504183001 25 262 9.7 22.5 0.00 0.18 0.18 46 1015.8
20260504182457 24 269 9.7 16.1 0.00 0.18 0.18 45 1016.0
20260504181955 24 359 9.7 16.1 0.00 0.18 0.18 48 1015.6
20260504181451 25 332 8.0 14.5 0.00 0.18 0.18 45 1015.8
20260504180950 23 23 6.4 16.1 0.00 0.18 0.18 48 1015.7
20260504180449 23 289 4.8 11.3 0.00 0.18 0.18 48 1015.8
20260504175947 23 8 4.8 14.5 0.00 0.18 0.18 51 1015.9
20260504175444 23 294 9.7 16.1 0.00 0.18 0.18 48 1015.8
20260504174941 23 340 4.8 22.5 0.00 0.18 0.18 51 1015.7
20260504174438 23 287 9.7 14.5 0.00 0.18 0.18 48 1015.7
20260504173936 23 313 6.4 14.5 0.00 0.18 0.18 49 1015.8
20260504173432 23 309 4.8 22.5 0.00 0.18 0.18 48 1015.8
20260504172930 23 342 4.8 11.3 0.00 0.18 0.18 50 1015.7
20260504172425 23 318 6.4 14.5 0.00 0.18 0.18 50 1015.6
20260504171922 22 237 4.8 16.1 0.00 0.18 0.18 50 1016.0
20260504171419 22 289 3.2 14.5 0.00 0.18 0.18 53 1015.9
20260504170916 22 23 3.2 14.5 0.00 0.18 0.18 50 1015.8
20260504170413 22 314 9.7 16.1 0.00 0.18 0.18 49 1016.2
20260504160331 19 324 4.8 22.5 0.00 0.18 0.18 59 1017.1
20260504150756 16 195 3.2 11.3 0.00 0.18 0.18 66 1017.0
20260504150253 16 336 4.8 19.3 0.00 0.18 0.18 69 1017.3
20260504141223 13 307 3.2 8.0 0.00 0.18 0.18 84 1018.0
20260504140719 12 285 3.2 4.8 0.00 0.18 0.18 84 1018.3
20260504140214 12 343 1.6 3.2 0.00 0.18 0.18 85 1018.7